Location: Alvis C Story Elementary School
(33.0968°N, 96.6364°W)
Time: 14:57:39
(UTC+00:00)

H-2A R/B (2) - Visible Passes

Search period start: 26 June 2022 00:00
Search period end: 06 July 2022 00:00
Orbit: 439 x 34387 km, 28.9° (Epoch: 24 June)

Date Brightness Start Highest point End Pass type
(mag) Time Alt. Az. Time Alt. Az. Time Alt. Az.
26 Jun 9.7 09:00:34 10° ESE 09:43:12 12° ESE 10:13:16 10° E visible
27 Jun 6.0 08:57:25 10° SSW 13:35:56 31° SSW 17:43:55 10° E visible
28 Jun 8.4 07:19:27 10° SE 12:56:47 47° SE 13:47:51 10° E visible
30 Jun 6.5 07:54:20 11° S 16:26:23 69° SSE 16:42:18 10° E visible
01 Jul 9.3 07:24:37 10° SE 11:43:15 38° SE 12:42:45 10° E visible
02 Jul 4.8 11:29:36 10° SW 13:19:08 16° SW 19:32:17 10° ESE visible
03 Jul 7.1 06:57:38 10° SSE 15:17:08 65° SSE 15:40:18 10° E visible
04 Jul 9.5 07:31:03 10° ESE 10:34:10 29° ESE 11:34:47 10° E visible
05 Jul 5.3 09:58:38 10° SSW 12:50:28 24° SW 18:31:01 10° E visible
